TimeCST,TemperatureF,Dew PointF,Humidity,Sea Level PressureIn,VisibilityMPH,Wind Direction,Wind SpeedMPH,Gust SpeedMPH,PrecipitationIn,Events,Conditions,WindDirDegrees,DateUTC
12:00 AM,71,68,88,30.01,5,ESE,10.4,,,Rain,Light Rain,110,2012-11-02 06:00:00
12:00 AM,71.6,68.0,88,30.01,5.0,ESE,10.4,-,N/A,Rain,Light Rain,110,2012-11-02 06:00:00
6:00 AM,71,69,92,29.98,11,Calm,Calm,,,,Haze,,2012-11-02 12:00:00
6:00 AM,71.6,69.8,94,29.98,6.2,Calm,Calm,-,N/A,,Scattered Clouds,0,2012-11-02 12:00:00
7:00 AM,71.6,69.8,94,29.98,6.2,Calm,Calm,-,N/A,,Mostly Cloudy,0,2012-11-02 13:00:00
8:00 AM,75.2,69.8,83,29.98,6.2,South,2.3,-,N/A,,Mostly Cloudy,170,2012-11-02 14:00:00
9:00 AM,78.8,71.6,78,30.01,6.2,East,2.3,-,N/A,,Mostly Cloudy,100,2012-11-02 15:00:00
10:00 AM,77.0,73.4,89,30.01,6.2,NNE,4.6,-,N/A,,Mostly Cloudy,20,2012-11-02 16:00:00
11:00 AM,80.6,71.6,74,30.01,6.2,Calm,Calm,-,N/A,,Mostly Cloudy,0,2012-11-02 17:00:00
12:00 PM,80,69,62,29.97,6,ESE,4.6,,,,Partly Cloudy,120,2012-11-02 18:00:00
12:00 PM,80.6,69.8,70,29.95,6.2,ESE,4.6,-,N/A,,Mostly Cloudy,120,2012-11-02 18:00:00
2:00 PM,78.8,71.6,78,29.92,2.5,East,8.1,-,N/A,,Drizzle,80,2012-11-02 20:00:00
3:00 PM,80,71,67,29.93,8,NE,5.8,,,Rain,Light Drizzle,40,2012-11-02 21:00:00
3:00 PM,80.6,71.6,74,29.92,6.2,NE,5.8,-,N/A,,Mostly Cloudy,40,2012-11-02 21:00:00
4:00 PM,75.2,71.6,89,29.92,1.2,NE,9.2,-,N/A,Rain,Light Rain,40,2012-11-02 22:00:00
5:00 PM,73.4,71.6,94,29.92,5.0,ENE,3.5,-,N/A,,Mostly Cloudy,60,2012-11-02 23:00:00
6:00 PM,74,72,91,29.95,1,SE,3.5,,,Rain,Light Rain,140,2012-11-03 00:00:00
6:00 PM,73.4,71.6,94,29.95,1.2,SE,3.5,-,N/A,Rain,Rain,140,2012-11-03 00:00:00
7:00 PM,73.4,71.6,94,29.98,1.2,East,5.8,-,N/A,,Drizzle,80,2012-11-03 01:00:00
8:00 PM,73.4,69.8,88,29.98,2.5,East,6.9,-,N/A,,Overcast,100,2012-11-03 02:00:00
9:00 PM,72,70,93,30.01,6,East,2.3,,,Rain,Light Rain,80,2012-11-03 03:00:00
9:00 PM,73.4,69.8,88,30.01,6.2,East,2.3,-,N/A,,Mostly Cloudy,80,2012-11-03 03:00:00
10:00 PM,73.4,71.6,94,30.01,6.2,SE,2.3,-,N/A,,Mostly Cloudy,130,2012-11-03 04:00:00
11:00 PM,73.4,71.6,94,29.98,6.2,Variable,2.3,-,N/A,,Mostly Cloudy,0,2012-11-03 05:00:00